date,time,SUV Intensity [MED/Hr],UV Index,Daily total [MED],Since Last [MED]
31/08/2023,00:00:43,0.000,0.0,0.0,0.0
31/08/2023,00:01:43,0.000,0.0,0.0,0.0
31/08/2023,00:02:43,0.000,0.0,0.0,0.0
31/08/2023,00:03:43,-0.000,0.0,0.0,0.0
31/08/2023,00:04:43,0.000,0.0,0.0,0.0
31/08/2023,00:05:43,-0.001,0.0,0.0,0.0
31/08/2023,00:06:41,0.000,0.0,0.0,0.0
31/08/2023,00:07:41,0.000,0.0,0.0,0.0
31/08/2023,00:08:43,-0.001,0.0,0.0,0.0
31/08/2023,00:09:43,0.001,0.0,0.0,0.0
31/08/2023,00:10:43,0.000,0.0,0.0,0.0
31/08/2023,00:11:43,0.000,0.0,0.0,0.0
31/08/2023,00:12:43,-0.000,0.0,0.0,0.0
31/08/2023,00:13:41,0.000,0.0,0.0,0.0
31/08/2023,00:14:41,-0.000,0.0,0.0,0.0
31/08/2023,00:15:43,0.000,0.0,0.0,0.0
31/08/2023,00:16:43,0.000,0.0,0.0,0.0
31/08/2023,00:17:43,0.000,0.0,0.0,0.0
31/08/2023,00:18:43,0.000,0.0,0.0,0.0
31/08/2023,00:19:43,0.000,0.0,0.0,0.0
31/08/2023,00:20:43,-0.001,0.0,0.0,0.0
31/08/2023,00:21:43,-0.001,0.0,0.0,0.0
31/08/2023,00:22:43,0.001,0.0,0.0,0.0
31/08/2023,00:23:41,-0.001,0.0,0.0,0.0
31/08/2023,00:24:41,0.001,0.0,0.0,0.0
31/08/2023,00:25:43,0.000,0.0,0.0,0.0
31/08/2023,00:26:41,0.000,0.0,0.0,0.0
31/08/2023,00:27:41,0.001,0.0,0.0,0.0
31/08/2023,00:28:43,0.001,0.0,0.0,0.0
31/08/2023,00:29:43,-0.000,0.0,0.0,0.0
31/08/2023,00:30:43,0.000,0.0,0.0,0.0
31/08/2023,00:31:43,0.000,0.0,0.0,0.0
31/08/2023,00:32:43,0.000,0.0,0.0,0.0
31/08/2023,00:33:43,0.000,0.0,0.0,0.0
31/08/2023,00:34:43,-0.000,0.0,0.0,0.0
31/08/2023,00:35:43,0.001,0.0,0.0,0.0
31/08/2023,00:36:43,0.000,0.0,0.0,0.0
31/08/2023,00:37:43,0.000,0.0,0.0,0.0
31/08/2023,00:38:43,0.000,0.0,0.0,0.0
31/08/2023,00:39:43,0.000,0.0,0.0,0.0
31/08/2023,00:40:43,0.000,0.0,0.0,0.0
31/08/2023,00:41:43,0.000,0.0,0.0,0.0
31/08/2023,00:42:43,0.001,0.0,0.0,0.0
31/08/2023,00:43:44,0.000,0.0,0.0,0.0
31/08/2023,00:44:43,0.000,0.0,0.0,0.0
31/08/2023,00:45:43,0.001,0.0,0.0,0.0
31/08/2023,00:46:44,0.001,0.0,0.0,0.0
31/08/2023,00:47:43,0.000,0.0,0.0,0.0
31/08/2023,00:48:43,0.000,0.0,0.0,0.0
31/08/2023,00:49:43,0.001,0.0,0.0,0.0
31/08/2023,00:50:44,0.001,0.0,0.0,0.0
31/08/2023,00:51:43,0.001,0.0,0.0,0.0
31/08/2023,00:52:43,0.001,0.0,0.0,0.0
31/08/2023,00:53:44,0.000,0.0,0.0,0.0
31/08/2023,00:54:43,0.001,0.0,0.0,0.0
31/08/2023,00:55:43,0.001,0.0,0.0,0.0
31/08/2023,00:56:43,0.000,0.0,0.0,0.0
31/08/2023,00:57:43,0.001,0.0,0.0,0.0
31/08/2023,00:58:43,0.001,0.0,0.0,0.0
31/08/2023,00:59:43,0.000,0.0,0.0,0.0
31/08/2023,01:00:43,-0.000,0.0,0.0,0.0
31/08/2023,01:01:44,0.001,0.0,0.0,0.0
31/08/2023,01:02:43,0.000,0.0,0.0,0.0
31/08/2023,01:03:43,0.000,0.0,0.0,0.0
31/08/2023,01:04:43,0.001,0.0,0.0,0.0
31/08/2023,01:05:43,-0.001,0.0,0.0,0.0
31/08/2023,01:06:43,-0.000,0.0,0.0,0.0
31/08/2023,01:07:43,0.001,0.0,0.0,0.0
31/08/2023,01:08:43,-0.000,0.0,0.0,0.0
31/08/2023,01:09:43,-0.000,0.0,0.0,0.0
31/08/2023,01:10:43,-0.000,0.0,0.0,0.0
31/08/2023,01:11:43,0.001,0.0,0.0,0.0
31/08/2023,01:12:43,0.000,0.0,0.0,0.0
31/08/2023,01:13:43,0.000,0.0,0.0,0.0
31/08/2023,01:14:44,0.000,0.0,0.0,0.0
31/08/2023,01:15:43,0.000,0.0,0.0,0.0
31/08/2023,01:16:43,0.000,0.0,0.0,0.0
31/08/2023,01:17:43,0.000,0.0,0.0,0.0
31/08/2023,01:18:43,-0.000,0.0,0.0,0.0
31/08/2023,01:19:43,0.000,0.0,0.0,0.0
31/08/2023,01:20:43,0.000,0.0,0.0,0.0
31/08/2023,01:21:43,0.000,0.0,0.0,0.0
31/08/2023,01:22:43,0.000,0.0,0.0,0.0
31/08/2023,01:23:43,-0.000,0.0,0.0,0.0
31/08/2023,01:24:43,0.001,0.0,0.0,0.0
31/08/2023,01:25:43,0.000,0.0,0.0,0.0
31/08/2023,01:26:43,-0.000,0.0,0.0,0.0
31/08/2023,01:27:43,0.000,0.0,0.0,0.0
31/08/2023,01:28:43,0.000,0.0,0.0,0.0
31/08/2023,01:29:43,0.000,0.0,0.0,0.0
31/08/2023,01:30:44,0.000,0.0,0.0,0.0
31/08/2023,01:31:43,-0.001,0.0,0.0,0.0
31/08/2023,01:32:43,0.000,0.0,0.0,0.0
31/08/2023,01:33:43,0.001,0.0,0.0,0.0
31/08/2023,01:34:43,0.001,0.0,0.0,0.0
31/08/2023,01:35:43,0.001,0.0,0.0,0.0
31/08/2023,01:36:43,0.001,0.0,0.0,0.0
31/08/2023,01:37:43,-0.001,0.0,0.0,0.0
31/08/2023,01:38:43,0.000,0.0,0.0,0.0
31/08/2023,01:39:43,0.000,0.0,0.0,0.0
31/08/2023,01:40:44,0.000,0.0,0.0,0.0
31/08/2023,01:41:43,0.000,0.0,0.0,0.0
31/08/2023,01:42:43,0.000,0.0,0.0,0.0
31/08/2023,01:43:43,0.000,0.0,0.0,0.0
31/08/2023,01:44:43,0.000,0.0,0.0,0.0
31/08/2023,01:45:43,0.000,0.0,0.0,0.0
31/08/2023,01:46:45,0.000,0.0,0.0,0.0
31/08/2023,01:47:44,-0.001,0.0,0.0,0.0
31/08/2023,01:48:43,0.000,0.0,0.0,0.0
31/08/2023,01:49:43,0.001,0.0,0.0,0.0
31/08/2023,01:50:43,0.001,0.0,0.0,0.0
31/08/2023,01:51:43,0.000,0.0,0.0,0.0
31/08/2023,01:52:43,0.000,0.0,0.0,0.0
31/08/2023,01:53:44,0.000,0.0,0.0,0.0
31/08/2023,01:54:43,-0.000,0.0,0.0,0.0
31/08/2023,01:55:44,0.000,0.0,0.0,0.0
31/08/2023,01:56:44,-0.000,0.0,0.0,0.0
31/08/2023,01:57:44,0.000,0.0,0.0,0.0
31/08/2023,01:58:43,0.000,0.0,0.0,0.0
31/08/2023,01:59:43,0.001,0.0,0.0,0.0
31/08/2023,02:00:43,0.000,0.0,0.0,0.0
31/08/2023,02:01:43,0.001,0.0,0.0,0.0
31/08/2023,02:02:44,0.001,0.0,0.0,0.0
31/08/2023,02:03:43,0.001,0.0,0.0,0.0
31/08/2023,02:04:43,0.000,0.0,0.0,0.0
31/08/2023,02:05:44,0.000,0.0,0.0,0.0
31/08/2023,02:06:43,0.000,0.0,0.0,0.0
31/08/2023,02:07:44,0.000,0.0,0.0,0.0
31/08/2023,02:08:41,0.001,0.0,0.0,0.0
31/08/2023,02:09:41,-0.001,0.0,0.0,0.0
31/08/2023,02:10:44,-0.001,0.0,0.0,0.0
31/08/2023,02:11:44,-0.000,0.0,0.0,0.0
31/08/2023,02:12:43,0.000,0.0,0.0,0.0
31/08/2023,02:13:43,0.000,0.0,0.0,0.0
31/08/2023,02:14:43,0.000,0.0,0.0,0.0
31/08/2023,02:15:43,0.000,0.0,0.0,0.0
31/08/2023,02:16:43,0.000,0.0,0.0,0.0
31/08/2023,02:17:44,-0.000,0.0,0.0,0.0
31/08/2023,02:18:44,0.000,0.0,0.0,0.0
31/08/2023,02:19:43,0.002,0.0,0.0,0.0
31/08/2023,02:20:43,0.001,0.0,0.0,0.0
31/08/2023,02:21:43,0.001,0.0,0.0,0.0
31/08/2023,02:22:43,0.001,0.0,0.0,0.0
31/08/2023,02:23:43,0.000,0.0,0.0,0.0
31/08/2023,02:24:44,-0.001,0.0,0.0,0.0
31/08/2023,02:25:43,-0.000,0.0,0.0,0.0
31/08/2023,02:26:43,0.000,0.0,0.0,0.0
31/08/2023,02:27:44,0.000,0.0,0.0,0.0
31/08/2023,02:28:43,0.000,0.0,0.0,0.0
31/08/2023,02:29:43,0.001,0.0,0.0,0.0
31/08/2023,02:30:44,0.000,0.0,0.0,0.0
31/08/2023,02:31:43,0.001,0.0,0.0,0.0
31/08/2023,02:32:44,0.001,0.0,0.0,0.0
31/08/2023,02:33:43,-0.000,0.0,0.0,0.0
31/08/2023,02:34:43,0.000,0.0,0.0,0.0
31/08/2023,02:35:43,0.000,0.0,0.0,0.0
31/08/2023,02:36:44,0.001,0.0,0.0,0.0
31/08/2023,02:37:43,0.001,0.0,0.0,0.0
31/08/2023,02:38:44,-0.001,0.0,0.0,0.0
31/08/2023,02:39:43,0.000,0.0,0.0,0.0
31/08/2023,02:40:43,0.000,0.0,0.0,0.0
31/08/2023,02:41:44,-0.000,0.0,0.0,0.0
31/08/2023,02:42:41,-0.000,0.0,0.0,0.0
31/08/2023,02:43:41,0.000,0.0,0.0,0.0
31/08/2023,02:44:43,0.000,0.0,0.0,0.0
31/08/2023,02:45:43,0.000,0.0,0.0,0.0
31/08/2023,02:46:43,0.000,0.0,0.0,0.0
31/08/2023,02:47:43,0.000,0.0,0.0,0.0
31/08/2023,02:48:43,0.000,0.0,0.0,0.0
31/08/2023,02:49:44,0.000,0.0,0.0,0.0
31/08/2023,02:50:43,0.001,0.0,0.0,0.0
31/08/2023,02:51:43,0.000,0.0,0.0,0.0
31/08/2023,02:52:43,0.001,0.0,0.0,0.0
31/08/2023,02:53:44,0.001,0.0,0.0,0.0
31/08/2023,02:54:43,0.000,0.0,0.0,0.0
31/08/2023,02:55:43,0.000,0.0,0.0,0.0
31/08/2023,02:56:43,0.001,0.0,0.0,0.0
31/08/2023,02:57:43,0.000,0.0,0.0,0.0
31/08/2023,02:58:44,-0.001,0.0,0.0,0.0
31/08/2023,02:59:43,-0.001,0.0,0.0,0.0
31/08/2023,03:00:43,-0.001,0.0,0.0,0.0
31/08/2023,03:01:44,0.001,0.0,0.0,0.0
31/08/2023,03:02:43,0.001,0.0,0.0,0.0
31/08/2023,03:03:43,0.000,0.0,0.0,0.0
31/08/2023,03:04:43,0.000,0.0,0.0,0.0
31/08/2023,03:05:44,0.001,0.0,0.0,0.0
31/08/2023,03:06:43,0.000,0.0,0.0,0.0
31/08/2023,03:07:43,-0.001,0.0,0.0,0.0
31/08/2023,03:08:43,0.000,0.0,0.0,0.0
31/08/2023,03:09:43,0.000,0.0,0.0,0.0
31/08/2023,03:10:43,0.001,0.0,0.0,0.0
31/08/2023,03:11:42,0.001,0.0,0.0,0.0
31/08/2023,03:13:06,0.000,0.0,0.0,0.0
31/08/2023,03:13:43,0.000,0.0,0.0,0.0
31/08/2023,03:14:43,0.001,0.0,0.0,0.0
31/08/2023,03:15:43,-0.000,0.0,0.0,0.0
31/08/2023,03:16:44,0.001,0.0,0.0,0.0
31/08/2023,03:17:44,-0.001,0.0,0.0,0.0
31/08/2023,03:18:44,-0.000,0.0,0.0,0.0
31/08/2023,03:19:43,0.002,0.0,0.0,0.0
31/08/2023,03:20:44,0.000,0.0,0.0,0.0
31/08/2023,03:21:43,0.001,0.0,0.0,0.0
31/08/2023,03:22:44,-0.000,0.0,0.0,0.0
31/08/2023,03:23:43,0.000,0.0,0.0,0.0
31/08/2023,03:24:43,0.000,0.0,0.0,0.0
31/08/2023,03:25:44,0.000,0.0,0.0,0.0
31/08/2023,03:26:43,0.000,0.0,0.0,0.0
31/08/2023,03:27:43,-0.001,0.0,0.0,0.0
31/08/2023,03:28:43,0.000,0.0,0.0,0.0
31/08/2023,03:29:44,0.000,0.0,0.0,0.0
31/08/2023,03:30:43,0.001,0.0,0.0,0.0
31/08/2023,03:31:43,0.000,0.0,0.0,0.0
31/08/2023,03:32:43,0.000,0.0,0.0,0.0
31/08/2023,03:33:44,0.000,0.0,0.0,0.0
31/08/2023,03:34:44,0.000,0.0,0.0,0.0
31/08/2023,03:35:43,0.000,0.0,0.0,0.0
31/08/2023,03:36:43,0.000,0.0,0.0,0.0
31/08/2023,03:37:43,0.000,0.0,0.0,0.0
31/08/2023,03:38:44,0.000,0.0,0.0,0.0
31/08/2023,03:39:43,0.001,0.0,0.0,0.0
31/08/2023,03:40:44,0.001,0.0,0.0,0.0
31/08/2023,03:41:43,-0.000,0.0,0.0,0.0
31/08/2023,03:42:43,-0.001,0.0,0.0,0.0
31/08/2023,03:43:43,0.000,0.0,0.0,0.0
31/08/2023,03:44:44,0.000,0.0,0.0,0.0
31/08/2023,03:45:43,0.000,0.0,0.0,0.0
31/08/2023,03:46:43,-0.000,0.0,0.0,0.0
31/08/2023,03:47:44,0.001,0.0,0.0,0.0
31/08/2023,03:48:43,0.000,0.0,0.0,0.0
31/08/2023,03:49:44,0.001,0.0,0.0,0.0
31/08/2023,03:50:43,0.000,0.0,0.0,0.0
31/08/2023,03:51:43,0.001,0.0,0.0,0.0
31/08/2023,03:52:44,-0.000,0.0,0.0,0.0
31/08/2023,03:53:43,0.001,0.0,0.0,0.0
31/08/2023,03:54:43,0.000,0.0,0.0,0.0
31/08/2023,03:55:43,0.000,0.0,0.0,0.0
31/08/2023,03:56:43,-0.000,0.0,0.0,0.0
31/08/2023,03:57:44,0.001,0.0,0.0,0.0
31/08/2023,03:58:43,-0.000,0.0,0.0,0.0
31/08/2023,03:59:43,-0.001,0.0,0.0,0.0
31/08/2023,04:00:44,-0.001,0.0,0.0,0.0
31/08/2023,04:01:43,0.000,0.0,0.0,0.0
31/08/2023,04:02:43,0.001,0.0,0.0,0.0
31/08/2023,04:03:44,0.001,0.0,0.0,0.0
31/08/2023,04:04:43,0.000,0.0,0.0,0.0
31/08/2023,04:05:43,0.001,0.0,0.0,0.0
31/08/2023,04:06:43,0.000,0.0,0.0,0.0
31/08/2023,04:07:43,-0.001,0.0,0.0,0.0
31/08/2023,04:08:43,0.000,0.0,0.0,0.0
31/08/2023,04:09:43,0.001,0.0,0.0,0.0
31/08/2023,04:10:44,0.000,0.0,0.0,0.0
31/08/2023,04:11:44,0.000,0.0,0.0,0.0
31/08/2023,04:12:43,0.000,0.0,0.0,0.0
31/08/2023,04:13:44,-0.001,0.0,0.0,0.0
31/08/2023,04:14:43,-0.000,0.0,0.0,0.0
31/08/2023,04:15:43,-0.001,0.0,0.0,0.0
31/08/2023,04:16:43,-0.000,0.0,0.0,0.0
31/08/2023,04:17:41,0.000,0.0,0.0,0.0
31/08/2023,04:18:41,0.000,0.0,0.0,0.0
31/08/2023,04:19:43,0.001,0.0,0.0,0.0
31/08/2023,04:20:43,-0.001,0.0,0.0,0.0
31/08/2023,04:21:44,0.000,0.0,0.0,0.0
31/08/2023,04:22:43,0.000,0.0,0.0,0.0
31/08/2023,04:23:43,-0.001,0.0,0.0,0.0
31/08/2023,04:24:43,0.001,0.0,0.0,0.0
31/08/2023,04:25:44,0.000,0.0,0.0,0.0
31/08/2023,04:26:43,0.001,0.0,0.0,0.0
31/08/2023,04:27:43,0.000,0.0,0.0,0.0
31/08/2023,04:28:43,0.001,0.0,0.0,0.0
31/08/2023,04:29:44,0.000,0.0,0.0,0.0
31/08/2023,04:30:43,0.000,0.0,0.0,0.0
31/08/2023,04:31:43,0.000,0.0,0.0,0.0
31/08/2023,04:32:44,-0.000,0.0,0.0,0.0
31/08/2023,04:33:43,0.000,0.0,0.0,0.0
31/08/2023,04:34:44,-0.001,0.0,0.0,0.0
31/08/2023,04:35:43,-0.000,0.0,0.0,0.0
31/08/2023,04:36:43,-0.000,0.0,0.0,0.0
31/08/2023,04:37:43,0.000,0.0,0.0,0.0
31/08/2023,04:38:44,0.000,0.0,0.0,0.0
31/08/2023,04:39:44,0.001,0.0,0.0,0.0
31/08/2023,04:40:43,0.000,0.0,0.0,0.0
31/08/2023,04:41:44,0.000,0.0,0.0,0.0
31/08/2023,04:42:44,0.000,0.0,0.0,0.0
31/08/2023,04:43:43,0.000,0.0,0.0,0.0
31/08/2023,04:44:43,0.001,0.0,0.0,0.0
31/08/2023,04:45:44,0.000,0.0,0.0,0.0
31/08/2023,04:46:43,0.000,0.0,0.0,0.0
31/08/2023,04:47:41,-0.000,0.0,0.0,0.0
31/08/2023,04:48:42,-0.001,0.0,0.0,0.0
31/08/2023,04:49:44,0.001,0.0,0.0,0.0
31/08/2023,04:50:44,0.000,0.0,0.0,0.0
31/08/2023,04:51:43,-0.000,0.0,0.0,0.0
31/08/2023,04:52:44,0.000,0.0,0.0,0.0
31/08/2023,04:53:43,0.001,0.0,0.0,0.0
31/08/2023,04:54:43,0.000,0.0,0.0,0.0
31/08/2023,04:55:44,0.000,0.0,0.0,0.0
31/08/2023,04:56:43,0.000,0.0,0.0,0.0
31/08/2023,04:57:43,0.001,0.0,0.0,0.0
31/08/2023,04:58:44,0.000,0.0,0.0,0.0
31/08/2023,04:59:43,0.000,0.0,0.0,0.0
31/08/2023,05:00:43,0.001,0.0,0.0,0.0
31/08/2023,05:01:43,-0.001,0.0,0.0,0.0
31/08/2023,05:02:44,0.001,0.0,0.0,0.0
31/08/2023,05:03:43,0.001,0.0,0.0,0.0
31/08/2023,05:04:44,0.001,0.0,0.0,0.0
31/08/2023,05:05:43,0.001,0.0,0.0,0.0
31/08/2023,05:06:43,0.000,0.0,0.0,0.0
31/08/2023,05:07:44,0.001,0.0,0.0,0.0
31/08/2023,05:08:43,0.000,0.0,0.0,0.0
31/08/2023,05:09:44,0.001,0.0,0.0,0.0
31/08/2023,05:10:43,0.001,0.0,0.0,0.0
31/08/2023,05:11:44,0.002,0.0,0.0,0.0
31/08/2023,05:12:43,-0.000,0.0,0.0,0.0
31/08/2023,05:13:43,0.001,0.0,0.0,0.0
31/08/2023,05:14:44,0.001,0.0,0.0,0.0
31/08/2023,05:15:43,0.002,0.0,0.0,0.0
31/08/2023,05:16:44,0.002,0.0,0.0,0.0
31/08/2023,05:17:44,0.001,0.0,0.0,0.0
31/08/2023,05:18:43,0.001,0.0,0.0,0.0
31/08/2023,05:19:41,0.002,0.0,0.0,0.0
31/08/2023,05:20:42,0.002,0.0,0.0,0.0
31/08/2023,05:21:44,0.002,0.0,0.0,0.0
31/08/2023,05:22:44,0.002,0.0,0.0,0.0
31/08/2023,05:23:44,0.002,0.0,0.0,0.0
31/08/2023,05:24:43,0.003,0.0,0.0,0.0
31/08/2023,05:25:43,0.003,0.0,0.0,0.0
31/08/2023,05:26:44,0.003,0.0,0.0,0.0
31/08/2023,05:27:43,0.003,0.0,0.0,0.0
31/08/2023,05:28:44,0.004,0.0,0.0,0.0
31/08/2023,05:29:44,0.004,0.0,0.0,0.0
31/08/2023,05:30:43,0.004,0.0,0.0,0.0
31/08/2023,05:31:44,0.004,0.0,0.0,0.0
31/08/2023,05:32:43,0.005,0.0,0.0,0.0
31/08/2023,05:33:43,0.005,0.0,0.0,0.0
31/08/2023,05:34:44,0.004,0.0,0.0,0.0
31/08/2023,05:35:42,0.005,0.0,0.0,0.0
31/08/2023,05:37:05,0.005,0.0,0.0,0.0
31/08/2023,05:37:43,0.006,0.0,0.0,0.0
31/08/2023,05:38:44,0.006,0.0,0.0,0.0
31/08/2023,05:39:43,0.006,0.0,0.0,0.0
31/08/2023,05:40:44,0.007,0.0,0.0,0.0
31/08/2023,05:41:45,0.007,0.0,0.0,0.0
31/08/2023,05:42:43,0.007,0.0,0.001,0.001
31/08/2023,05:43:44,0.006,0.0,0.001,0.0
31/08/2023,05:44:43,0.007,0.0,0.001,0.0
31/08/2023,05:45:44,0.008,0.0,0.001,0.0
31/08/2023,05:46:43,0.007,0.0,0.001,0.0
31/08/2023,05:47:43,0.009,0.0,0.001,0.0
31/08/2023,05:48:41,0.009,0.0,0.001,0.0
31/08/2023,05:49:42,0.009,0.0,0.001,0.0
31/08/2023,05:50:44,0.010,0.0,0.002,0.001
31/08/2023,05:51:43,0.011,0.0,0.002,0.0
31/08/2023,05:52:44,0.011,0.0,0.002,0.0
31/08/2023,05:53:43,0.011,0.0,0.002,0.0
31/08/2023,05:54:44,0.011,0.0,0.002,0.0
31/08/2023,05:55:43,0.012,0.0,0.003,0.001
31/08/2023,05:56:44,0.012,0.0,0.003,0.0
31/08/2023,05:57:43,0.012,0.0,0.003,0.0
31/08/2023,05:58:43,0.014,0.0,0.003,0.0
31/08/2023,05:59:44,0.015,0.0,0.003,0.0
31/08/2023,06:00:43,0.016,0.0,0.004,0.001
31/08/2023,06:01:43,0.017,0.0,0.004,0.0
31/08/2023,06:02:44,0.016,0.0,0.004,0.0
31/08/2023,06:03:43,0.019,0.0,0.004,0.0
31/08/2023,06:04:44,0.019,0.0,0.005,0.001
31/08/2023,06:05:43,0.020,0.0,0.005,0.0
31/08/2023,06:06:43,0.021,0.0,0.005,0.0
31/08/2023,06:07:44,0.022,0.0,0.006,0.001
31/08/2023,06:08:43,0.023,0.0,0.006,0.0
31/08/2023,06:09:43,0.024,0.0,0.007,0.001
31/08/2023,06:10:44,0.025,0.0,0.007,0.0
31/08/2023,06:11:44,0.026,0.0,0.007,0.0
31/08/2023,06:12:44,0.026,0.0,0.008,0.001
31/08/2023,06:13:43,0.026,0.0,0.008,0.0
31/08/2023,06:14:43,0.027,0.0,0.009,0.001
31/08/2023,06:15:44,0.027,0.0,0.009,0.0
31/08/2023,06:16:44,0.026,0.0,0.01,0.001
31/08/2023,06:17:43,0.027,0.0,0.01,0.0
31/08/2023,06:18:44,0.027,0.0,0.01,0.0
31/08/2023,06:19:43,0.028,0.0,0.011,0.001
31/08/2023,06:20:43,0.029,0.0,0.011,0.0
31/08/2023,06:21:44,0.029,0.0,0.012,0.001
31/08/2023,06:22:43,0.030,0.0,0.012,0.0
31/08/2023,06:23:43,0.029,0.0,0.013,0.001
31/08/2023,06:24:44,0.029,0.0,0.013,0.0
31/08/2023,06:25:43,0.032,0.0,0.014,0.001
31/08/2023,06:26:43,0.031,0.0,0.014,0.0
31/08/2023,06:27:44,0.032,0.0,0.015,0.001
31/08/2023,06:28:43,0.034,0.0,0.015,0.0
31/08/2023,06:29:43,0.034,0.0,0.016,0.001
31/08/2023,06:30:44,0.034,0.0,0.017,0.001
31/08/2023,06:31:43,0.036,0.0,0.017,0.0
31/08/2023,06:32:43,0.037,0.0,0.018,0.001
31/08/2023,06:33:43,0.037,0.0,0.018,0.0
31/08/2023,06:34:44,0.039,0.0,0.019,0.001
31/08/2023,06:35:44,0.040,0.0,0.02,0.001
31/08/2023,06:36:43,0.040,0.0,0.02,0.0
31/08/2023,06:37:44,0.042,0.0,0.021,0.001
31/08/2023,06:38:43,0.042,0.0,0.022,0.001
31/08/2023,06:39:43,0.045,0.0,0.022,0.0
31/08/2023,06:40:44,0.047,0.0,0.023,0.001
31/08/2023,06:41:44,0.049,0.0,0.024,0.001
31/08/2023,06:42:44,0.050,0.0,0.025,0.001
31/08/2023,06:43:43,0.052,0.0,0.026,0.001
31/08/2023,06:44:44,0.054,0.0,0.027,0.001
31/08/2023,06:45:43,0.056,0.0,0.028,0.001
31/08/2023,06:46:43,0.057,0.0,0.028,0.0
31/08/2023,06:47:42,0.059,0.0,0.029,0.001
31/08/2023,06:48:42,0.061,0.0,0.03,0.001
31/08/2023,06:49:44,0.063,0.0,0.031,0.001
31/08/2023,06:50:44,0.065,0.0,0.033,0.002
31/08/2023,06:51:44,0.066,0.0,0.034,0.001
31/08/2023,06:52:43,0.067,0.0,0.035,0.001
31/08/2023,06:53:43,0.067,0.0,0.036,0.001
31/08/2023,06:54:44,0.067,0.0,0.037,0.001
31/08/2023,06:55:44,0.068,0.0,0.038,0.001
31/08/2023,06:56:44,0.067,0.0,0.039,0.001
31/08/2023,06:57:43,0.068,0.0,0.04,0.001
31/08/2023,06:58:44,0.068,0.0,0.041,0.001
31/08/2023,06:59:44,0.068,0.0,0.043,0.002
31/08/2023,07:00:43,0.069,0.0,0.044,0.001
31/08/2023,07:01:44,0.070,0.0,0.045,0.001
31/08/2023,07:02:43,0.073,0.0,0.046,0.001
31/08/2023,07:03:43,0.075,0.0,0.047,0.001
31/08/2023,07:04:44,0.079,0.0,0.049,0.002
31/08/2023,07:05:44,0.082,0.0,0.05,0.001
31/08/2023,07:06:44,0.086,0.0,0.051,0.001
31/08/2023,07:07:44,0.088,0.0,0.053,0.002
31/08/2023,07:08:43,0.091,0.0,0.054,0.001
31/08/2023,07:09:43,0.093,0.0,0.056,0.002
31/08/2023,07:10:44,0.097,0.0,0.057,0.001
31/08/2023,07:11:44,0.098,0.0,0.059,0.002
31/08/2023,07:12:44,0.100,0.0,0.061,0.002
31/08/2023,07:13:44,0.100,0.0,0.062,0.001
31/08/2023,07:14:44,0.099,0.0,0.064,0.002
31/08/2023,07:15:44,0.096,0.0,0.066,0.002
31/08/2023,07:16:44,0.095,0.0,0.067,0.001
31/08/2023,07:17:43,0.094,0.0,0.069,0.002
31/08/2023,07:18:44,0.094,0.0,0.07,0.001
31/08/2023,07:19:43,0.095,0.0,0.072,0.002
31/08/2023,07:20:43,0.098,0.0,0.073,0.001
31/08/2023,07:21:44,0.100,0.0,0.075,0.002
31/08/2023,07:22:43,0.102,0.0,0.077,0.002
31/08/2023,07:23:44,0.105,0.0,0.079,0.002
31/08/2023,07:24:44,0.105,0.0,0.08,0.001
31/08/2023,07:25:43,0.106,0.0,0.082,0.002
31/08/2023,07:26:44,0.104,0.0,0.084,0.002
31/08/2023,07:27:45,0.105,0.0,0.086,0.002
31/08/2023,07:28:43,0.105,0.0,0.087,0.001
31/08/2023,07:29:44,0.106,0.0,0.089,0.002
31/08/2023,07:30:43,0.106,0.0,0.091,0.002
31/08/2023,07:31:44,0.107,0.0,0.093,0.002
31/08/2023,07:32:42,0.108,0.0,0.094,0.001
31/08/2023,07:33:42,0.109,0.0,0.096,0.002
31/08/2023,07:34:44,0.108,0.0,0.098,0.002
31/08/2023,07:35:43,0.106,0.0,0.1,0.002
31/08/2023,07:36:44,0.104,0.0,0.102,0.002
31/08/2023,07:37:43,0.102,0.0,0.103,0.001
31/08/2023,07:38:44,0.101,0.0,0.105,0.002
31/08/2023,07:39:43,0.100,0.0,0.107,0.002
31/08/2023,07:40:42,0.099,0.0,0.108,0.001
31/08/2023,07:41:41,0.099,0.0,0.11,0.002
31/08/2023,07:42:44,0.099,0.0,0.112,0.002
31/08/2023,07:43:44,0.101,0.0,0.113,0.001
31/08/2023,07:44:44,0.102,0.0,0.115,0.002
31/08/2023,07:45:44,0.107,0.0,0.117,0.002
31/08/2023,07:46:44,0.111,0.0,0.119,0.002
31/08/2023,07:47:44,0.115,0.0,0.12,0.001
31/08/2023,07:48:44,0.120,0.0,0.122,0.002
31/08/2023,07:49:43,0.125,0.0,0.124,0.002
31/08/2023,07:50:44,0.130,0.0,0.127,0.003
31/08/2023,07:51:44,0.134,0.0,0.129,0.002
31/08/2023,07:52:44,0.139,0.0,0.131,0.002
31/08/2023,07:53:44,0.144,0.0,0.133,0.002
31/08/2023,07:54:44,0.147,0.0,0.136,0.003
31/08/2023,07:55:44,0.150,0.0,0.138,0.002
31/08/2023,07:56:44,0.149,0.0,0.141,0.003
31/08/2023,07:57:44,0.147,0.0,0.143,0.002
31/08/2023,07:58:45,0.145,0.0,0.146,0.003
31/08/2023,07:59:44,0.143,0.0,0.148,0.002
31/08/2023,08:00:44,0.140,0.0,0.15,0.002
31/08/2023,08:01:43,0.143,0.0,0.153,0.003
31/08/2023,08:02:43,0.147,0.0,0.155,0.002
31/08/2023,08:03:44,0.152,0.0,0.158,0.003
31/08/2023,08:04:44,0.159,0.0,0.16,0.002
31/08/2023,08:05:44,0.168,0.0,0.163,0.003
31/08/2023,08:06:43,0.177,0.0,0.166,0.003
31/08/2023,08:07:44,0.184,0.0,0.169,0.003
31/08/2023,08:08:44,0.191,0.0,0.172,0.003
31/08/2023,08:09:44,0.200,0.0,0.175,0.003
31/08/2023,08:10:44,0.204,0.0,0.179,0.004
31/08/2023,08:11:44,0.208,0.0,0.182,0.003
31/08/2023,08:12:42,0.209,0.0,0.186,0.004
31/08/2023,08:13:41,0.206,0.0,0.189,0.003
31/08/2023,08:14:44,0.202,0.0,0.192,0.003
31/08/2023,08:15:44,0.196,0.0,0.196,0.004
31/08/2023,08:16:43,0.193,0.0,0.199,0.003
31/08/2023,08:17:44,0.191,0.0,0.202,0.003
31/08/2023,08:18:44,0.193,0.0,0.205,0.003
31/08/2023,08:19:44,0.197,0.0,0.209,0.004
31/08/2023,08:20:43,0.201,0.0,0.212,0.003
31/08/2023,08:21:43,0.206,0.0,0.215,0.003
31/08/2023,08:22:44,0.210,0.0,0.219,0.004
31/08/2023,08:23:43,0.214,0.0,0.222,0.003
31/08/2023,08:24:43,0.216,0.0,0.226,0.004
31/08/2023,08:25:44,0.218,1.0,0.23,0.004
31/08/2023,08:26:44,0.219,1.0,0.233,0.003
31/08/2023,08:27:44,0.219,1.0,0.237,0.004
31/08/2023,08:28:43,0.218,1.0,0.241,0.004
31/08/2023,08:29:44,0.214,0.0,0.244,0.003
31/08/2023,08:30:44,0.210,0.0,0.248,0.004
31/08/2023,08:31:44,0.206,0.0,0.251,0.003
31/08/2023,08:32:43,0.204,0.0,0.255,0.004
31/08/2023,08:33:43,0.207,0.0,0.258,0.003
31/08/2023,08:34:44,0.210,0.0,0.261,0.003
31/08/2023,08:35:44,0.215,0.0,0.265,0.004
31/08/2023,08:36:44,0.222,1.0,0.269,0.004
31/08/2023,08:37:43,0.231,1.0,0.272,0.003
31/08/2023,08:38:44,0.238,1.0,0.276,0.004
31/08/2023,08:39:44,0.245,1.0,0.28,0.004
31/08/2023,08:40:44,0.253,1.0,0.284,0.004
31/08/2023,08:41:43,0.258,1.0,0.289,0.005
31/08/2023,08:42:44,0.260,1.0,0.293,0.004
31/08/2023,08:43:44,0.264,1.0,0.297,0.004
31/08/2023,08:44:44,0.266,1.0,0.302,0.005
31/08/2023,08:45:43,0.265,1.0,0.306,0.004
31/08/2023,08:46:44,0.263,1.0,0.311,0.005
31/08/2023,08:47:44,0.257,1.0,0.315,0.004
31/08/2023,08:48:43,0.251,1.0,0.319,0.004
31/08/2023,08:49:44,0.245,1.0,0.323,0.004
31/08/2023,08:50:43,0.239,1.0,0.327,0.004
31/08/2023,08:51:43,0.236,1.0,0.331,0.004
31/08/2023,08:52:44,0.232,1.0,0.335,0.004
31/08/2023,08:53:44,0.232,1.0,0.339,0.004
31/08/2023,08:54:44,0.231,1.0,0.343,0.004
31/08/2023,08:55:44,0.231,1.0,0.347,0.004
31/08/2023,08:56:44,0.234,1.0,0.351,0.004
31/08/2023,08:57:43,0.242,1.0,0.355,0.004
31/08/2023,08:58:44,0.250,1.0,0.359,0.004
31/08/2023,08:59:44,0.259,1.0,0.363,0.004
31/08/2023,09:00:44,0.269,1.0,0.367,0.004
31/08/2023,09:01:44,0.277,1.0,0.372,0.005
31/08/2023,09:02:44,0.285,1.0,0.377,0.005
31/08/2023,09:03:44,0.293,1.0,0.381,0.004
31/08/2023,09:04:44,0.296,1.0,0.386,0.005
31/08/2023,09:05:44,0.303,1.0,0.391,0.005
31/08/2023,09:06:44,0.313,1.0,0.396,0.005
31/08/2023,09:07:43,0.324,1.0,0.402,0.006
31/08/2023,09:08:44,0.336,1.0,0.407,0.005
31/08/2023,09:09:43,0.348,1.0,0.413,0.006
31/08/2023,09:10:44,0.366,1.0,0.419,0.006
31/08/2023,09:11:44,0.385,1.0,0.425,0.006
31/08/2023,09:12:44,0.408,1.0,0.432,0.007
31/08/2023,09:13:44,0.435,1.0,0.439,0.007
31/08/2023,09:14:44,0.458,1.0,0.446,0.007
31/08/2023,09:15:43,0.475,1.0,0.454,0.008
31/08/2023,09:16:44,0.483,1.0,0.462,0.008
31/08/2023,09:17:44,0.490,1.0,0.47,0.008
31/08/2023,09:18:43,0.495,1.0,0.478,0.008
31/08/2023,09:19:44,0.497,1.0,0.487,0.009
31/08/2023,09:20:44,0.491,1.0,0.495,0.008
31/08/2023,09:21:44,0.471,1.0,0.503,0.008
31/08/2023,09:22:44,0.442,1.0,0.51,0.007
31/08/2023,09:23:44,0.421,1.0,0.518,0.008
31/08/2023,09:24:44,0.411,1.0,0.525,0.007
31/08/2023,09:25:44,0.411,1.0,0.531,0.006
31/08/2023,09:26:44,0.420,1.0,0.538,0.007
31/08/2023,09:27:44,0.442,1.0,0.545,0.007
31/08/2023,09:28:44,0.478,1.0,0.553,0.008
31/08/2023,09:29:44,0.510,1.0,0.561,0.008
31/08/2023,09:30:44,0.535,1.0,0.57,0.009
31/08/2023,09:31:43,0.551,1.0,0.579,0.009
31/08/2023,09:32:44,0.558,1.0,0.588,0.009
31/08/2023,09:33:44,0.565,1.0,0.598,0.01
31/08/2023,09:34:44,0.574,1.0,0.607,0.009
31/08/2023,09:35:44,0.588,1.0,0.617,0.01
31/08/2023,09:36:43,0.604,1.0,0.627,0.01
31/08/2023,09:37:44,0.620,1.0,0.637,0.01
31/08/2023,09:38:44,0.637,1.0,0.648,0.011
31/08/2023,09:39:44,0.650,1.0,0.658,0.01
31/08/2023,09:40:44,0.652,2.0,0.669,0.011
31/08/2023,09:41:44,0.646,1.0,0.68,0.011
31/08/2023,09:42:44,0.634,1.0,0.691,0.011
31/08/2023,09:43:44,0.626,1.0,0.701,0.01
31/08/2023,09:44:44,0.621,1.0,0.711,0.01
31/08/2023,09:45:44,0.628,1.0,0.722,0.011
31/08/2023,09:46:44,0.634,1.0,0.732,0.01
31/08/2023,09:47:44,0.636,1.0,0.743,0.011
31/08/2023,09:48:44,0.637,1.0,0.754,0.011
31/08/2023,09:49:44,0.632,1.0,0.764,0.01
31/08/2023,09:50:44,0.635,1.0,0.775,0.011
31/08/2023,09:51:44,0.653,2.0,0.785,0.01
31/08/2023,09:52:44,0.689,2.0,0.797,0.012
31/08/2023,09:53:44,0.729,2.0,0.808,0.011
31/08/2023,09:54:44,0.762,2.0,0.821,0.013
31/08/2023,09:55:44,0.783,2.0,0.834,0.013
31/08/2023,09:56:44,0.780,2.0,0.847,0.013
31/08/2023,09:57:44,0.770,2.0,0.86,0.013
31/08/2023,09:58:44,0.759,2.0,0.872,0.012
31/08/2023,09:59:44,0.755,2.0,0.885,0.013
31/08/2023,10:00:44,0.757,2.0,0.898,0.013
31/08/2023,10:01:44,0.753,2.0,0.91,0.012
31/08/2023,10:02:44,0.739,2.0,0.923,0.013